Regional Weather Roundup
Issued by NWS

Home | Current Version | Previous Version | Text Only | Print | Product List | Glossary Off
Versions: 1 2 3 4 5 6 7 8 9 10 11 12 13 14 15 16 17 18 19 20 21 22 23 24 25 26 27 28 29 30 31 32 33 34 35 36 37 38 39 40 41 42 43 44 45 46 47 48 49

000
ASUS45 KBOU 272307
RWRCO

WEATHER ROUNDUP FOR COLORADO
NATIONAL WEATHER SERVICE DENVER/BOULDER CO
400 PM MST FRI FEB 27 2015

NOTE: "FAIR" INDICATES FEW OR NO CLOUDS BELOW 12000 FEET WITH NO
SIGNIFICANT WEATHER AND/OR OBSTRUCTIONS TO VISIBILITY.

COZ001>005-013-030-031-280000-
...NORTHWEST COLORADO...

CITY           SKY/WX    TMP DP  RH WIND       PRES   REMARKS
CRAIG            N/A     35   9  33 MISG      29.75F
HAYDEN         SUNNY     30   7  37 CALM      29.74F
MEEKER         SUNNY     30  16  56 S5        29.73F WCI  25
MOUNT WERNER   NOT AVBL
STEAMBOAT SPGS SUNNY     28   7  40 CALM      29.74F
WALDEN         SUNNY     23   1  39 SW3       29.71S
$$

COZ006>008-011-280000-
...WEST CENTRAL VALLEYS...

CITY           SKY/WX    TMP DP  RH WIND       PRES   REMARKS
GRAND JUNCTION MOSUNNY   39  23  52 S9        29.73F
MONTROSE       PTSUNNY   34  25  69 N5        29.77S WCI  30
EAGLE          FLURRIES  30  25  80 N3        29.73F
RIFLE          MOSUNNY   39  22  50 SE12      29.72F
DELTA          CLOUDY    39  30  70 SW7       29.76R
NUCLA          MOSUNNY   37  21  52 SW10      29.77F
$$

COZ017>023-064>068-280000-
...SOUTHWEST COLORADO...

CITY           SKY/WX    TMP DP  RH WIND       PRES   REMARKS
DURANGO        LGT SNOW  29  25  85 SE5       29.77S FOG     WCI  24
CORTEZ         LGT SNOW  32  29  88 SW3       29.77S FOG
PAGOSA SPRINGS LGT SNOW  28  24  84 SW3       29.76S
TELLURIDE      CLOUDY    26  13  57 NW3       29.72S
WOLF CREEK PAS SNOW      10  10 100 SW21      29.71F VSB 1/4 WCI  -9
$$

COZ009-010-012-014-032>034-037-058>063-280000-
...CENTRAL COLORADO...

CITY           SKY/WX    TMP DP  RH WIND       PRES   REMARKS
ASPEN          LGT SNOW  24  19  81 N10       29.70S WCI  14
BUENA VISTA    CLOUDY    19  10  65 CALM      29.71F
COPPER MTN     LGT SNOW  14   9  79 MISG      29.63S VSB 3/4
BERTHOUD PASS  SNOW       5   0  78 NW10      29.63S VSB 1/4 WCI -10
COTTONWOOD PAS CLOUDY    19  14  79 CALM      29.67S
GUNNISON       MOSUNNY   30   9  40 SW9       29.71F WCI  22
KREMMLING      PTSUNNY   28  12  50 SW3       29.72F
LEADVILLE      LGT SNOW  18  11  74 CALM      29.64S
SALIDA         PTSUNNY   27  14  58 E8        29.79F WCI  18
SUNLIGHT       LGT SNOW  19  18  93 CALM        N/A
WILKERSON PASS PTSUNNY   19  12  73 SW3       29.68S
$$

COZ069>075-280000-
...SAN LUIS VALLEY/SANGRE DE CRISTO MOUNTAINS...

CITY           SKY/WX    TMP DP  RH WIND       PRES   REMARKS
ALAMOSA        MOSUNNY   27  18  69 SW12      29.73F WCI  17
LA VETA PASS   LGT SNOW  21  16  79 S5        29.70F WCI  15
SAGUACHE       CLOUDY    27  19  74 SE6       29.75S WCI  20
$$

COZ035-036-038>040-280000-
...NORTHERN COLORADO FRONT RANGE...

CITY           SKY/WX    TMP DP  RH WIND       PRES   REMARKS
DENVER INTL AP MOSUNNY   18   6  59 NW9       29.88F WCI   7
DMNS CITY PARK   N/A     17   8  66 N5G12     29.90S WCI  10
AURORA         MOSUNNY   16   7  68 NW9       29.87F WCI   4
FRONT RANGE AP MOSUNNY   19   9  63 SE14      29.89S WCI   6
ERIE MUNI ARPT SUNNY     16   7  67 N3        29.92F
BOULDER MUN AP CLOUDY    16   9  73 NW3       29.91F
CENTENNIAL     MOSUNNY   17   6  62 CALM      29.85F
BROOMFIELD     PTSUNNY   14   9  79 N7        29.89F WCI   4
FORT COLLINS   SUNNY     16   3  57 CALM      29.95S
LONGMONT       SUNNY     23   6  46 W3        29.95F
$$

COZ041-046-047-076>085-087-088-280000-
...PIKES PEAK/PALMER DIVIDE AND SOUTHERN FOOTHILLS...

CITY           SKY/WX    TMP DP  RH WIND       PRES   REMARKS
COLO. SPRINGS  LGT SNOW  11   6  81 SE8       29.89S VSB 1   WCI  -1
A. F. ACADEMY  CLOUDY    10   2  70 SE10      29.84F WCI  -4
ELLICOTT       NOT AVBL
FALCON         LGT SNOW   9   3  78 S10       29.85S WCI  -6
FORT CARSON    LGT SNOW  12   7  79 SE7       29.89S VSB 1   WCI   2
LIMON          LGT SNOW   9   5  84 SE20      29.95S FOG     WCI -10
MONUMENT HILL  SUNNY     12   3  67 S15       29.79S WCI  -4
TRINIDAD       SUNNY     20  10  65 E6        29.86F WCI  12
$$

COZ042>045-048>051-090-091-280000-
...NORTHEAST COLORADO...

CITY           SKY/WX    TMP DP  RH WIND       PRES   REMARKS
GREELEY ARPT   CLOUDY    21   7  53 SE10      29.93F WCI  10
AKRON          LGT SNOW  14   8  77 SE20G28   30.00F WCI  -3
BURLINGTON     LGT SNOW  13   6  74 S22       30.09F WCI  -6
WRAY           CLOUDY    19  10  67 SE20      30.12F WCI   3
STERLING       CLOUDY    19  10  68 S16G24    30.04F WCI   5
HOLYOKE        NOT AVBL
FORT MORGAN    CLOUDY    19   8  61 S18       29.99F WCI   4
$$

COZ086-089-092>099-280000-
...SOUTHEAST COLORADO...

CITY           SKY/WX    TMP DP  RH WIND       PRES   REMARKS
PUEBLO         CLOUDY    19   9  65 NE7       29.96F WCI  10
LA JUNTA       SUNNY     20  10  65 SE18      30.00F WCI   5
LAMAR          CLOUDY    16   8  71 SE23G30   30.09F WCI  -2
SPRINGFIELD      N/A     12   7  80 SE22      30.05F WCI  -7
$$


USA.gov is the U.S. government's official web portal to all federal, state and local government web resources and services.